map of DBO home
Great Circle Mapper logo
DBO - Airport
Location
City:  Dubbo, New South Wales, Australia
ICAO / IATA:YSDU / DBO

Details
Type:Airport (Aerodrome, Airfield)
Use:Public/Civil
Latitude:3213'00"S (-32.216666)
Longitude:14834'29"E (148.574722)
Datum:WGS 1984
Elevation:935 ft (285 m)
Runways:2
Longest:5604 × 148 ft (1708 × 45 m), paved

Time
Time Zone:UTC+10 (DST+11)
Local Time:

Weather
METAR:YSDU 202000Z AUTO 15011KT 9999 // NCD 04/03 Q1026
TAF:YSDU 201706Z 2018/2112 09012KT 9999 FEW015
BECMG 2021/2023 09015G25KT CAVOK
FM210100 10012KT 9999 FEW040
RMK

Related Locations
Nearby:
Farthest:HOR: 11971 mi / 19265 km
Horta (Faial Island), Azores, PT

Find:

   beyond  
but within

Other Information
Maps:
NOTAMs:
Links:
Sources:

  
flag of Australia
flag of New South Wales
  

Sectional Chart

Flight Planning
at skyvector.com

Satellite Image

Google Maps Satellite View

 

Copyright © 2004-2014 Karl L. Swartz. All rights reserved.
The Great Circle Mapper name and logo are trademarks of the Great Circle Mapper.
All other trademarks mentioned herein belong to their respective owners.
Please see credits for attibutions and further copyright information.

  Follow gcmap on Facebook Follow gcmap on Twitter

hCard Microformat

Geo Microformat